PTD-3 (TYVAK-0125) (52734 NORAD) Tracking and Keplerian Element Data

This shows tracking and keplerian element data for the satellite.

Feedback or suggestion? Click here.




ElementValue
Catalog52734
NamePTD-3 (TYVAK-0125)
Epoch Orbit1248
Epoch Day228.32370747
Epoch Year2022
RAAN342.1181
Inclination97.523
Eccentricity0.0008134
Argument of Perigee343.3019
Mean Anonmoly16.7943
Mean Motion15.13110064
Decay Rate8.674E-05
L11 52734U 22057C 22228.32370747 .00008674 00000+0 49294-3 0 9991
L22 52734 97.5230 342.1181 0008134 343.3019 16.7943 15.13110064 12485

Live tracking and technical data element details for PTD-3 (TYVAK-0125) (NORAD 52734). PTD-3 (TYVAK-0125) can be tracked NOW for your location showing map with azimuth and elevation plus other details from your city location.

Track the satellite on the map from your city or location and see movement details for azimuth, elevation, latitude, longitude, range, height, and movement on the map or in text.







IsCatalogInMostPopularTable: catalog: 52734, numindb: 10
Update: records affected: 1



GetName: 52734 PTD-3 (TYVAK-0125)

Hit Count: updated at: Thu, 18 Aug 2022 20:28:10 GMT